User: anonymous   Login
Location: Montague
(41.3030°N, 74.7940°W)
Time: 13:48:44
(UTC-04:00)
Language:

Cosmos 1461 - Orbit

View from above orbital plane
View from above orbital plane
View from above satellite
View from above satellite

Ground track
Ground track

The orbit data is extracted from the following two-line orbital elements,

1 14064U 83044A   17111.94394544 +.00001197 +00000-0 +12045-3 0  9990
2 14064 065.0003 098.8237 0085928 062.6553 298.3275 14.93551595714956
Epoch (UTC): 21 April 2017 22:39:16
Eccentricity: 0.0085928
inclination: 65.0003°
perigee height: 527 km
apogee height: 647 km
right ascension of ascending node: 98.8237°
argument of perigee: 62.6553°
revolutions per day: 14.93551595
mean anomaly at epoch: 298.3275°
orbit number at epoch: 71495

The dashed part of the orbit path shows where the satellite is in the earth's shadow,  

DLR